Location: Alberta Star Party
(51.6612°N, 112.9089°W)
Time: 03:50:23
(UTC-06:00)

Amateur Radio Satellites - All Passes

Search period start: 22 August 2014 03:20
Search period end: 23 August 2014 03:20
Location: Alberta Star Party, 51.6612°N, 112.9089°W

Satellite Date Start Highest point End Downlink Frequencies (MHz)
Time Altitude Azimuth
Uribyol 2 22 Aug 03:28:59 03:33:59 46° 99° (E) 03:38:57 436.500 FM
JAS-1B 22 Aug 03:32:22 03:39:50 45° 94° (E) 03:46:05 435.800 - 435.900 CW/SSB
Oscar 16 22 Aug 03:39:14 03:44:28 77° 288° (WNW) 03:49:39 437.025 USB, Beacon 2401.1428
AO-27 22 Aug 03:42:51 03:47:59 58° 101° (ESE) 03:53:05 436.795 MHz FM
OPAL 22 Aug 03:51:43 03:56:21 38° 61° (ENE) 04:01:03 ?
Sapphire 22 Aug 03:52:29 03:57:52 56° 46° (NE) 04:03:12 437.095 MHz 1200 baud AX-25 AFSK
KITSAT 1 22 Aug 04:04:48 04:12:47 59° 320° (NW) 04:20:48 435.175 FM
TMSAT-1 22 Aug 04:14:10 04:19:09 40° 97° (E) 04:24:06 436.925 FM
PCSat 22 Aug 04:23:04 04:28:33 88° 53° (NE) 04:33:59 145.825 MHz
Saudisat 1A 22 Aug 04:24:54 04:28:41 27° 332° (NNW) 04:32:29 436.775 MHz
Oscar 19 22 Aug 04:45:57 04:50:15 27° 301° (WNW) 04:54:32 437.125 CW, 437.150 USB
AO-Echo 22 Aug 04:50:09 04:54:33 37° 295° (WNW) 04:58:52 ?
Gurwin Techsat 1B 22 Aug 04:55:59 05:01:19 78° 288° (WNW) 05:06:37 435.225 FM
ITAMSAT 1 22 Aug 04:56:06 05:00:56 41° 296° (WNW) 05:05:45 435.822 SSB
AO-7 22 Aug 05:06:46 05:14:07 33° 94° (E) 05:21:22 29.400 - 29.500 MHz
Uribyol 2 22 Aug 05:08:46 05:13:20 32° 299° (WNW) 05:17:53 436.500 FM
Oscar 16 22 Aug 05:19:56 05:23:02 16° 308° (NW) 05:26:08 437.025 USB, Beacon 2401.1428
STRAND 1 22 Aug 05:22:25 05:24:58 14° 50° (NE) 05:27:31 ?
AO-27 22 Aug 05:22:55 05:27:12 27° 301° (WNW) 05:31:30 436.795 MHz FM
JAS-1B 22 Aug 05:22:59 05:30:34 48° 300° (WNW) 05:36:55 435.800 - 435.900 CW/SSB
OPAL 22 Aug 05:30:34 05:35:15 38° 261° (W) 05:40:01 ?
Uosat F 22 Aug 05:31:36 05:36:20 40° 98° (E) 05:41:01 435.120 FM
Sapphire 22 Aug 05:36:16 05:41:05 33° 246° (WSW) 05:45:53 437.095 MHz 1200 baud AX-25 AFSK
TMSAT-1 22 Aug 05:54:12 05:59:04 38° 296° (WNW) 06:03:55 436.925 FM
KITSAT 1 22 Aug 06:02:52 06:09:56 31° 347° (NNW) 06:17:00 435.175 FM
Saudisat 1A 22 Aug 06:06:57 06:09:40 16° 356° (N) 06:12:22 436.775 MHz
PCSat 22 Aug 06:07:32 06:11:17 19° 253° (WSW) 06:15:02 145.825 MHz
Hamsat 22 Aug 06:29:28 06:32:27 18° 89° (E) 06:35:24 145.90 MHz
SO-50 22 Aug 06:31:05 06:34:35 23° 115° (ESE) 06:38:10 436.795 FM
Gurwin Techsat 1B 22 Aug 06:37:15 06:40:31 17° 308° (NW) 06:43:46 435.225 FM
STRAND 1 22 Aug 06:58:13 07:03:16 66° 70° (ENE) 07:08:21 ?
AO-7 22 Aug 06:59:19 07:07:36 72° 296° (WNW) 07:15:49 29.400 - 29.500 MHz
Uosat F 22 Aug 07:10:34 07:15:05 35° 297° (WNW) 07:19:35 435.120 FM
JAS-1B 22 Aug 07:14:43 07:19:04 16° 326° (NW) 07:23:06 435.800 - 435.900 CW/SSB
JAS-2 22 Aug 07:32:10 07:37:16 52° 100° (E) 07:42:22 435.800 - 435.900 CW/SSB, 435.910 FM
SO-67 22 Aug 07:36:02 07:37:10 11° 87° (E) 07:38:17 435.3500 MHz FM
UOSAT-12 22 Aug 07:45:31 07:47:11 12° 108° (ESE) 07:48:51 437.025 FM, 437.400 FM
Saudisat 1A 22 Aug 07:47:25 07:50:47 21° 20° (NNE) 07:54:09 436.775 MHz
KITSAT 1 22 Aug 08:00:40 08:07:50 33° 16° (NNE) 08:14:59 435.175 FM
Hamsat 22 Aug 08:04:29 08:08:50 63° 288° (WNW) 08:13:09 145.90 MHz
SO-50 22 Aug 08:10:15 08:14:45 68° 316° (NW) 08:19:23 436.795 FM
STRAND 1 22 Aug 08:39:05 08:42:57 21° 270° (W) 08:46:49 ?
AO-7 22 Aug 08:52:52 08:59:09 25° 319° (NW) 09:05:26 29.400 - 29.500 MHz
SO-67 22 Aug 09:07:12 09:10:40 67° 286° (WNW) 09:14:06 435.3500 MHz FM
JAS-2 22 Aug 09:17:50 09:22:11 27° 301° (WNW) 09:26:31 435.800 - 435.900 CW/SSB, 435.910 FM
HO-68 22 Aug 09:20:45 09:25:55 21° 87° (E) 09:31:02 435.675 MHz FM
UOSAT-12 22 Aug 09:21:51 09:26:27 67° 128° (SE) 09:31:10 437.025 FM, 437.400 FM
Saudisat 1A 22 Aug 09:26:48 09:31:12 61° 43° (NE) 09:35:35 436.775 MHz
Hamsat 22 Aug 09:42:50 09:43:58 11° 308° (NW) 09:45:06 145.90 MHz
RS-15 22 Aug 09:47:12 09:57:23 45° 113° (ESE) 10:07:27 29.354 - 29.394 USB, Beacon 29.352 USB
SO-50 22 Aug 09:52:29 09:56:08 23° 339° (NNW) 09:59:51 436.795 FM
KITSAT 1 22 Aug 09:56:43 10:04:48 66° 43° (NE) 10:12:49 435.175 FM
UKube-1 22 Aug 10:44:37 10:48:47 42° 99° (E) 10:52:54 145.840 MHz, 145.915 MHz
AO-7 22 Aug 10:46:54 10:49:04 11° 346° (NNW) 10:51:14 29.400 - 29.500 MHz
Oscar 11 22 Aug 11:00:36 11:04:46 41° 98° (E) 11:08:54 145.825 FM, Beacon 2401.500 USB
FUNcube-1 22 Aug 11:01:06 11:04:19 20° 91° (E) 11:07:35 145.950 - 145.970 MHz USB
UOSAT-12 22 Aug 11:02:46 11:06:59 32° 330° (NNW) 11:11:16 437.025 FM, 437.400 FM
Saudisat 1A 22 Aug 11:06:53 11:10:29 25° 243° (WSW) 11:14:04 436.775 MHz
HO-68 22 Aug 11:07:27 11:14:39 86° 108° (ESE) 11:21:50 435.675 MHz FM
SO-50 22 Aug 11:35:12 11:38:16 17° 4° (N) 11:41:23 436.795 FM
Oscar 16 22 Aug 11:49:07 11:49:32 10° 45° (NE) 11:49:56 437.025 USB, Beacon 2401.1428
KITSAT 1 22 Aug 11:52:30 11:59:56 42° 247° (WSW) 12:07:21 435.175 FM
RS-15 22 Aug 11:58:14 12:09:14 72° 319° (NW) 12:20:14 29.354 - 29.394 USB, Beacon 29.352 USB
UKube-1 22 Aug 12:21:10 12:24:50 27° 298° (WNW) 12:28:29 145.840 MHz, 145.915 MHz
JAS-1B 22 Aug 12:33:02 12:40:09 25° 45° (NE) 12:46:46 435.800 - 435.900 CW/SSB
AO-7 22 Aug 12:36:11 12:38:13 11° 14° (NNE) 12:40:15 29.400 - 29.500 MHz
FUNcube-1 22 Aug 12:36:45 12:41:04 58° 289° (WNW) 12:45:29 145.950 - 145.970 MHz USB
Oscar 11 22 Aug 12:37:06 12:40:49 28° 297° (WNW) 12:44:32 145.825 FM, Beacon 2401.500 USB
UOSAT-12 22 Aug 12:45:17 12:48:30 18° 353° (N) 12:51:44 437.025 FM, 437.400 FM
Oscar 19 22 Aug 12:50:26 12:54:40 26° 59° (ENE) 12:58:55 437.125 CW, 437.150 USB
AO-Echo 22 Aug 12:53:24 12:56:18 16° 53° (NE) 12:59:09 ?
HO-68 22 Aug 12:55:53 13:01:39 28° 310° (NW) 13:07:26 435.675 MHz FM
ITAMSAT 1 22 Aug 13:02:55 13:06:21 18° 53° (NE) 13:09:47 435.822 SSB
Gurwin Techsat 1B 22 Aug 13:07:58 13:09:22 11° 46° (NE) 13:10:46 435.225 FM
Uribyol 2 22 Aug 13:14:37 13:18:34 23° 56° (ENE) 13:22:31 436.500 FM
SO-50 22 Aug 13:16:11 13:20:17 28° 28° (NNE) 13:24:26 436.795 FM
Oscar 16 22 Aug 13:22:48 13:27:41 45° 66° (ENE) 13:32:37 437.025 USB, Beacon 2401.1428
AO-27 22 Aug 13:28:19 13:32:37 27° 59° (ENE) 13:36:56 436.795 MHz FM
TMSAT-1 22 Aug 14:02:34 14:06:22 20° 55° (NE) 14:10:10 436.925 FM
RS-15 22 Aug 14:13:19 14:23:36 43° 350° (N) 14:34:00 29.354 - 29.394 USB, Beacon 29.352 USB
FUNcube-1 22 Aug 14:16:03 14:16:38 10° 308° (NW) 14:17:12 145.950 - 145.970 MHz USB
JAS-1B 22 Aug 14:19:33 14:29:18 67° 66° (ENE) 14:38:13 435.800 - 435.900 CW/SSB
AO-7 22 Aug 14:21:52 14:28:06 24° 40° (NE) 14:34:18 29.400 - 29.500 MHz
UOSAT-12 22 Aug 14:26:38 14:30:16 21° 18° (NNE) 14:33:54 437.025 FM, 437.400 FM
Oscar 19 22 Aug 14:28:36 14:33:41 60° 259° (WSW) 14:38:50 437.125 CW, 437.150 USB
AO-Echo 22 Aug 14:29:14 14:34:22 78° 73° (ENE) 14:39:21 ?
ITAMSAT 1 22 Aug 14:39:59 14:45:11 88° 74° (ENE) 14:50:24 435.822 SSB
Gurwin Techsat 1B 22 Aug 14:43:05 14:48:10 48° 66° (ENE) 14:53:16 435.225 FM
Uribyol 2 22 Aug 14:52:26 14:57:35 71° 256° (WSW) 15:02:46 436.500 FM
SO-50 22 Aug 14:56:36 15:01:23 84° 229° (SW) 15:06:13 436.795 FM
ISS 22 Aug 15:01:12 15:03:43 20° 145° (SE) 15:06:15 145.800 FM
Oscar 16 22 Aug 15:02:39 15:07:13 32° 266° (W) 15:11:50 437.025 USB, Beacon 2401.1428
AO-27 22 Aug 15:06:45 15:11:51 57° 259° (WSW) 15:16:59 436.795 MHz FM
Uosat F 22 Aug 15:13:35 15:17:02 19° 54° (NE) 15:20:28 435.120 FM
TMSAT-1 22 Aug 15:40:24 15:45:43 83° 255° (WSW) 15:51:03 436.925 FM
MaSat-1 22 Aug 15:49:08 15:53:27 32° 109° (ESE) 15:58:03 437.345 MHz
UOSAT-12 22 Aug 16:06:43 16:11:24 55° 41° (NE) 16:16:02 437.025 FM, 437.400 FM
JAS-2 22 Aug 16:10:01 16:11:31 11° 45° (NE) 16:13:00 435.800 - 435.900 CW/SSB, 435.910 FM
AO-Echo 22 Aug 16:10:15 16:13:41 18° 271° (W) 16:17:05 ?
JAS-1B 22 Aug 16:10:56 16:20:08 43° 266° (W) 16:28:46 435.800 - 435.900 CW/SSB
AO-7 22 Aug 16:11:20 16:19:36 70° 64° (ENE) 16:27:53 29.400 - 29.500 MHz
ITAMSAT 1 22 Aug 16:22:18 16:25:25 16° 273° (W) 16:28:33 435.822 SSB
Gurwin Techsat 1B 22 Aug 16:23:41 16:28:21 31° 266° (W) 16:33:03 435.225 FM
RS-15 22 Aug 16:28:11 16:38:47 50° 24° (NNE) 16:49:37 29.354 - 29.394 USB, Beacon 29.352 USB
Uribyol 2 22 Aug 16:36:12 16:38:02 12° 276° (W) 16:39:52 436.500 FM
ISS 22 Aug 16:36:45 16:40:03 65° 163° (SSE) 16:43:22 145.800 FM
SO-50 22 Aug 16:38:24 16:41:19 16° 248° (WSW) 16:44:14 436.795 FM
Uosat F 22 Aug 16:50:12 16:55:14 85° 254° (WSW) 17:00:17 435.120 FM
TMSAT-1 22 Aug 17:23:38 17:26:29 15° 275° (W) 17:29:21 436.925 FM
MaSat-1 22 Aug 17:25:33 17:30:25 52° 310° (NW) 17:35:31 437.345 MHz
Hamsat 22 Aug 17:27:56 17:31:28 25° 63° (ENE) 17:35:02 145.90 MHz
OPAL 22 Aug 17:34:29 17:39:17 36° 99° (E) 17:44:04 ?
UOSAT-12 22 Aug 17:47:12 17:51:23 31° 241° (WSW) 17:55:30 437.025 FM, 437.400 FM
JAS-2 22 Aug 17:49:25 17:55:28 46° 66° (ENE) 18:00:53 435.800 - 435.900 CW/SSB, 435.910 FM
AO-7 22 Aug 18:05:35 18:13:01 35° 265° (W) 18:20:29 29.400 - 29.500 MHz
ISS 22 Aug 18:13:26 18:16:46 89° 3° (N) 18:20:07 145.800 FM
HO-68 22 Aug 18:14:44 18:15:44 10° 28° (NNE) 18:16:43 435.675 MHz FM
SO-67 22 Aug 18:15:20 18:16:07 11° 58° (ENE) 18:16:54 435.3500 MHz FM
Uosat F 22 Aug 18:32:13 18:34:48 14° 274° (W) 18:37:24 435.120 FM
RS-15 22 Aug 18:41:09 18:52:11 82° 232° (SW) 19:03:36 29.354 - 29.394 USB, Beacon 29.352 USB
Sapphire 22 Aug 18:42:35 18:45:23 14° 104° (ESE) 18:48:11 437.095 MHz 1200 baud AX-25 AFSK
Hamsat 22 Aug 19:03:07 19:07:14 45° 262° (W) 19:11:25 145.90 MHz
STRAND 1 22 Aug 19:04:42 19:07:31 15° 86° (E) 19:10:19 ?
MaSat-1 22 Aug 19:05:18 19:08:43 18° 333° (NNW) 19:12:10 437.345 MHz
PCSat 22 Aug 19:11:04 19:15:26 26° 110° (ESE) 19:19:49 145.825 MHz
OPAL 22 Aug 19:13:21 19:18:15 42° 298° (WNW) 19:23:08 ?
JAS-2 22 Aug 19:34:44 19:40:42 38° 263° (W) 19:46:04 435.800 - 435.900 CW/SSB, 435.910 FM
SO-67 22 Aug 19:45:08 19:48:37 87° 258° (WSW) 19:52:07 435.3500 MHz FM
ISS 22 Aug 19:50:11 19:53:25 46° 203° (SSW) 19:56:38 145.800 FM
Oscar 10/S400 22 Aug 19:54:04 20:11:03 31° 147° (SSE) 20:53:20 145.825 - 145.975 CW/USB, Beacon 145.810 USB
HO-68 22 Aug 19:55:15 20:01:17 31° 52° (NE) 20:07:20 435.675 MHz FM
UKube-1 22 Aug 20:12:09 20:14:02 13° 53° (NE) 20:15:55 145.840 MHz, 145.915 MHz
Sapphire 22 Aug 20:22:30 20:27:54 74° 124° (SE) 20:33:20 437.095 MHz 1200 baud AX-25 AFSK
Oscar 11 22 Aug 20:28:33 20:29:38 11° 52° (NE) 20:30:42 145.825 FM, Beacon 2401.500 USB
STRAND 1 22 Aug 20:42:20 20:47:29 87° 106° (ESE) 20:52:35 ?
MaSat-1 22 Aug 20:46:58 20:47:57 11° 357° (N) 20:48:56 437.345 MHz
PCSat 22 Aug 20:53:01 20:58:25 70° 311° (NW) 21:03:52 145.825 MHz
RS-15 22 Aug 20:54:24 21:02:59 27° 257° (WSW) 21:11:49 29.354 - 29.394 USB, Beacon 29.352 USB
OPAL 22 Aug 20:55:14 20:55:55 10° 319° (NW) 20:56:36 ?
ISS 22 Aug 21:28:02 21:29:32 13° 221° (SW) 21:31:02 145.800 FM
HO-68 22 Aug 21:41:18 21:48:27 76° 254° (WSW) 21:55:39 435.675 MHz FM
UKube-1 22 Aug 21:45:11 21:49:31 75° 72° (ENE) 21:53:53 145.840 MHz, 145.915 MHz
Oscar 11 22 Aug 22:00:42 22:04:59 63° 72° (ENE) 22:09:18 145.825 FM, Beacon 2401.500 USB
FUNcube-1 22 Aug 22:02:55 22:06:31 29° 64° (ENE) 22:10:10 145.950 - 145.970 MHz USB
Sapphire 22 Aug 22:07:01 22:11:50 31° 326° (NW) 22:16:40 437.095 MHz 1200 baud AX-25 AFSK
STRAND 1 22 Aug 22:22:36 22:26:03 19° 306° (NW) 22:29:31 ?
MaSat-1 22 Aug 22:24:35 22:27:19 14° 21° (NNE) 22:29:58 437.345 MHz
PCSat 22 Aug 22:38:28 22:42:48 24° 334° (NNW) 22:47:09 145.825 MHz
UKube-1 22 Aug 23:23:44 23:26:16 15° 271° (W) 23:28:48 145.840 MHz, 145.915 MHz
HO-68 22 Aug 23:32:52 23:37:24 18° 275° (W) 23:41:57 435.675 MHz FM
Oscar 11 22 Aug 23:38:41 23:41:36 18° 271° (W) 23:44:33 145.825 FM, Beacon 2401.500 USB
FUNcube-1 22 Aug 23:39:02 23:42:51 35° 264° (W) 23:46:46 145.950 - 145.970 MHz USB
Sapphire 22 Aug 23:53:34 23:56:59 17° 351° (N) 00:00:25 437.095 MHz 1200 baud AX-25 AFSK
MaSat-1 23 Aug 00:01:11 00:05:55 37° 44° (NE) 00:10:13 437.345 MHz
PCSat 23 Aug 00:24:56 00:28:12 16° 0° (N) 00:31:28 145.825 MHz
KITSAT 1 23 Aug 00:34:37 00:39:25 17° 100° (E) 00:44:12 435.175 FM
Saudisat 1A 23 Aug 01:18:17 01:21:46 23° 117° (ESE) 01:25:17 436.775 MHz
Oscar 16 23 Aug 01:32:05 01:32:39 10° 82° (E) 01:33:12 437.025 USB, Beacon 2401.1428
MaSat-1 23 Aug 01:38:25 01:43:09 44° 247° (WSW) 01:47:22 437.345 MHz
Sapphire 23 Aug 01:38:41 01:42:32 19° 18° (NNE) 01:46:22 437.095 MHz 1200 baud AX-25 AFSK
JAS-1B 23 Aug 02:03:48 02:06:12 12° 73° (ENE) 02:08:30 435.800 - 435.900 CW/SSB
PCSat 23 Aug 02:09:14 02:13:36 24° 26° (NNE) 02:17:57 145.825 MHz
KITSAT 1 23 Aug 02:25:21 02:33:20 67° 122° (ESE) 02:41:21 435.175 FM
AO-Echo 23 Aug 02:32:19 02:35:09 16° 87° (E) 02:37:58 ?
Oscar 19 23 Aug 02:34:45 02:39:28 33° 95° (E) 02:44:09 437.125 CW, 437.150 USB
ITAMSAT 1 23 Aug 02:48:04 02:51:58 21° 90° (E) 02:55:52 435.822 SSB
Gurwin Techsat 1B 23 Aug 02:55:32 02:57:43 12° 84° (E) 02:59:54 435.225 FM
Saudisat 1A 23 Aug 02:56:37 03:01:01 64° 316° (NW) 03:05:26 436.775 MHz
Uribyol 2 23 Aug 02:59:58 03:04:23 28° 93° (E) 03:08:47 436.500 FM
Oscar 16 23 Aug 03:07:53 03:13:05 63° 102° (ESE) 03:18:14 437.025 USB, Beacon 2401.1428
